Time,TemperatureF,DewpointF,PressureIn,WindDirection,WindDirectionDegrees,WindSpeedMPH,WindSpeedGustMPH,Humidity,HourlyPrecipIn,Conditions,Clouds,dailyrainin,SoftwareType,DateUTC
2013-01-13 00:03:00,39.0,38.0,29.72,SSW,197,0.0,-999.0,98,-99.99,,,-99.99,,2013-01-13 05:03:00,
2013-01-13 00:12:00,39.0,38.0,29.72,SSW,197,0.0,-999.0,98,-99.99,,,-99.99,,2013-01-13 05:12:00,
2013-01-13 00:23:00,39.0,38.0,29.73,SSE,161,1.0,-999.0,98,-99.99,,,-99.99,,2013-01-13 05:23:00,
2013-01-13 00:32:00,40.0,39.0,29.73,SSW,195,1.0,-999.0,98,-99.99,,,-99.99,,2013-01-13 05:32:00,
2013-01-13 00:42:00,40.0,39.0,29.73,SSW,195,1.0,-999.0,98,-99.99,,,-99.99,,2013-01-13 05:42:00,
2013-01-13 00:53:00,40.0,39.0,29.73,SSW,195,1.0,-999.0,98,-99.99,,,-99.99,,2013-01-13 05:53:00,
2013-01-13 01:03:00,40.0,39.0,29.72,South,178,1.0,-999.0,98,-99.99,,,-99.99,,2013-01-13 06:03:00,
2013-01-13 01:12:00,40.0,39.0,29.72,South,178,1.0,-999.0,98,-99.99,,,-99.99,,2013-01-13 06:12:00,
2013-01-13 01:22:00,40.0,39.0,29.72,SSE,161,1.0,-999.0,98,-99.99,,,-99.99,,2013-01-13 06:22:00,
2013-01-13 01:32:00,40.0,39.0,29.71,SSW,198,1.0,-999.0,98,-99.99,,,-99.99,,2013-01-13 06:32:00,
2013-01-13 01:42:00,40.0,39.0,29.71,SSW,198,1.0,-999.0,98,-99.99,,,-99.99,,2013-01-13 06:42:00,
2013-01-13 01:52:00,40.0,39.0,29.72,SSW,197,1.0,-999.0,98,-99.99,,,-99.99,,2013-01-13 06:52:00,
2013-01-13 02:02:00,40.0,39.0,29.73,SSW,192,1.0,-999.0,98,-99.99,,,-99.99,,2013-01-13 07:02:00,
2013-01-13 02:12:00,40.0,39.0,29.73,SSW,192,1.0,-999.0,98,-99.99,,,-99.99,,2013-01-13 07:12:00,
2013-01-13 02:22:00,40.0,39.0,29.72,SSE,159,1.0,-999.0,98,-99.99,,,-99.99,,2013-01-13 07:22:00,
2013-01-13 02:32:00,40.0,39.0,29.71,SE,139,0.0,-999.0,98,-99.99,,,-99.99,,2013-01-13 07:32:00,
2013-01-13 02:42:00,40.0,39.0,29.71,SE,139,0.0,-999.0,98,-99.99,,,-99.99,,2013-01-13 07:42:00,
2013-01-13 02:53:00,39.0,38.0,29.71,SE,136,0.0,-999.0,98,-99.99,,,-99.99,,2013-01-13 07:53:00,
2013-01-13 03:02:00,39.0,38.0,29.71,East,101,0.0,-999.0,98,-99.99,,,-99.99,,2013-01-13 08:02:00,
2013-01-13 03:12:00,39.0,38.0,29.71,East,101,0.0,-999.0,98,-99.99,,,-99.99,,2013-01-13 08:12:00,
2013-01-13 03:22:00,39.0,38.0,29.69,ESE,115,1.0,-999.0,98,-99.99,,,-99.99,,2013-01-13 08:22:00,
2013-01-13 03:32:00,39.0,38.0,29.69,SSW,201,0.0,-999.0,98,-99.99,,,-99.99,,2013-01-13 08:32:00,
2013-01-13 03:42:00,39.0,38.0,29.69,SSW,201,0.0,-999.0,98,-99.99,,,-99.99,,2013-01-13 08:42:00,
2013-01-13 03:53:00,39.0,38.0,29.69,SSW,193,0.0,-999.0,98,-99.99,,,-99.99,,2013-01-13 08:53:00,
2013-01-13 04:02:00,39.0,38.0,29.69,SSW,193,0.0,-999.0,98,-99.99,,,-99.99,,2013-01-13 09:02:00,
2013-01-13 04:12:00,39.0,38.0,29.70,SSW,193,0.0,-999.0,98,-99.99,,,-99.99,,2013-01-13 09:12:00,
2013-01-13 04:22:00,39.0,38.0,29.70,SSW,193,0.0,-999.0,98,-99.99,,,-99.99,,2013-01-13 09:22:00,
2013-01-13 04:32:00,39.0,38.0,29.70,SSW,193,0.0,-999.0,98,-99.99,,,-99.99,,2013-01-13 09:32:00,
2013-01-13 04:42:00,39.0,38.0,29.70,SSW,193,0.0,-999.0,98,-99.99,,,-99.99,,2013-01-13 09:42:00,
2013-01-13 04:52:00,39.0,38.0,29.70,SSW,193,0.0,-999.0,98,-99.99,,,-99.99,,2013-01-13 09:52:00,
2013-01-13 05:02:00,38.0,37.0,29.70,SSW,193,0.0,-999.0,98,-99.99,,,-99.99,,2013-01-13 10:02:00,
2013-01-13 05:12:00,38.0,37.0,29.70,SSW,193,0.0,-999.0,98,-99.99,,,-99.99,,2013-01-13 10:12:00,
2013-01-13 05:22:00,38.0,37.0,29.70,ESE,110,0.0,-999.0,98,-99.99,,,-99.99,,2013-01-13 10:22:00,
2013-01-13 05:32:00,39.0,38.0,29.69,ESE,110,0.0,-999.0,98,-99.99,,,-99.99,,2013-01-13 10:32:00,
2013-01-13 05:42:00,39.0,38.0,29.69,ESE,110,0.0,-999.0,98,-99.99,,,-99.99,,2013-01-13 10:42:00,
2013-01-13 05:53:00,39.0,38.0,29.68,SSE,147,1.0,-999.0,98,-99.99,,,-99.99,,2013-01-13 10:53:00,
2013-01-13 06:02:00,39.0,38.0,29.68,SSE,153,0.0,-999.0,98,-99.99,,,-99.99,,2013-01-13 11:02:00,
2013-01-13 06:12:00,39.0,38.0,29.68,SSE,153,0.0,-999.0,98,-99.99,,,-99.99,,2013-01-13 11:12:00,
2013-01-13 06:22:00,39.0,38.0,29.68,SSE,153,0.0,-999.0,98,-99.99,,,-99.99,,2013-01-13 11:22:00,
2013-01-13 06:32:00,39.0,39.0,29.68,SSE,153,0.0,-999.0,99,-99.99,,,-99.99,,2013-01-13 11:32:00,
2013-01-13 06:42:00,39.0,39.0,29.68,SSE,153,0.0,-999.0,99,-99.99,,,-99.99,,2013-01-13 11:42:00,
2013-01-13 06:53:00,39.0,39.0,29.68,SSE,153,0.0,-999.0,99,-99.99,,,-99.99,,2013-01-13 11:53:00,
2013-01-13 07:03:00,39.0,39.0,29.69,South,175,0.0,-999.0,99,-99.99,,,-99.99,,2013-01-13 12:03:00,
2013-01-13 07:12:00,39.0,39.0,29.69,South,175,0.0,-999.0,99,-99.99,,,-99.99,,2013-01-13 12:12:00,
2013-01-13 07:22:00,39.0,39.0,29.70,South,175,0.0,-999.0,99,-99.99,,,-99.99,,2013-01-13 12:22:00,
2013-01-13 07:33:00,39.0,39.0,29.70,SE,141,1.0,-999.0,99,-99.99,,,-99.99,,2013-01-13 12:33:00,
2013-01-13 07:42:00,39.0,39.0,29.70,SE,141,1.0,-999.0,99,-99.99,,,-99.99,,2013-01-13 12:42:00,
2013-01-13 07:53:00,39.0,39.0,29.70,SE,141,1.0,-999.0,99,-99.99,,,-99.99,,2013-01-13 12:53:00,
2013-01-13 08:03:00,39.0,39.0,29.71,South,173,1.0,-999.0,99,-99.99,,,-99.99,,2013-01-13 13:03:00,
2013-01-13 08:12:00,39.0,39.0,29.71,South,173,1.0,-999.0,99,-99.99,,,-99.99,,2013-01-13 13:12:00,
2013-01-13 08:22:00,39.0,39.0,29.71,ESE,123,1.0,-999.0,99,-99.99,,,-99.99,,2013-01-13 13:22:00,
2013-01-13 08:33:00,39.0,38.0,29.71,ESE,113,0.0,-999.0,98,-99.99,,,-99.99,,2013-01-13 13:33:00,
2013-01-13 08:42:00,39.0,38.0,29.71,ESE,113,0.0,-999.0,98,-99.99,,,-99.99,,2013-01-13 13:42:00,
2013-01-13 08:53:00,39.0,39.0,29.71,ESE,118,1.0,-999.0,99,-99.99,,,-99.99,,2013-01-13 13:53:00,
2013-01-13 09:03:00,40.0,39.0,29.71,SW,229,1.0,-999.0,98,-99.99,,,-99.99,,2013-01-13 14:03:00,
2013-01-13 09:12:00,40.0,39.0,29.71,SW,229,1.0,-999.0,98,-99.99,,,-99.99,,2013-01-13 14:12:00,
2013-01-13 09:22:00,40.0,40.0,29.72,ESE,111,1.0,-999.0,99,-99.99,,,-99.99,,2013-01-13 14:22:00,
2013-01-13 09:33:00,40.0,40.0,29.72,South,175,1.0,-999.0,99,-99.99,,,-99.99,,2013-01-13 14:33:00,
2013-01-13 09:43:00,40.0,40.0,29.72,South,175,1.0,-999.0,99,-99.99,,,-99.99,,2013-01-13 14:43:00,
2013-01-13 09:53:00,40.0,40.0,29.73,ESE,117,1.0,-999.0,99,-99.99,,,-99.99,,2013-01-13 14:53:00,
2013-01-13 10:03:00,41.0,41.0,29.73,SSE,164,0.0,-999.0,99,-99.99,,,-99.99,,2013-01-13 15:03:00,
2013-01-13 10:13:00,41.0,41.0,29.73,SSE,164,0.0,-999.0,99,-99.99,,,-99.99,,2013-01-13 15:13:00,
2013-01-13 10:23:00,41.0,41.0,29.73,SSW,194,1.0,-999.0,99,-99.99,,,-99.99,,2013-01-13 15:23:00,
2013-01-13 10:33:00,41.0,41.0,29.72,ESE,116,2.0,-999.0,99,-99.99,,,-99.99,,2013-01-13 15:33:00,
2013-01-13 10:43:00,41.0,41.0,29.72,ESE,116,2.0,-999.0,99,-99.99,,,-99.99,,2013-01-13 15:43:00,
2013-01-13 10:53:00,42.0,42.0,29.72,ESE,111,1.0,-999.0,99,-99.99,,,-99.99,,2013-01-13 15:53:00,
2013-01-13 11:03:00,42.0,42.0,29.72,SSE,157,1.0,-999.0,99,-99.99,,,-99.99,,2013-01-13 16:03:00,
2013-01-13 11:12:00,42.0,42.0,29.72,SSE,157,1.0,-999.0,99,-99.99,,,-99.99,,2013-01-13 16:12:00,
2013-01-13 11:23:00,42.0,42.0,29.71,South,175,1.0,-999.0,99,-99.99,,,-99.99,,2013-01-13 16:23:00,
2013-01-13 11:33:00,42.0,42.0,29.71,South,178,1.0,-999.0,99,-99.99,,,-99.99,,2013-01-13 16:33:00,
2013-01-13 11:43:00,42.0,42.0,29.71,South,178,1.0,-999.0,99,-99.99,,,-99.99,,2013-01-13 16:43:00,
2013-01-13 11:53:00,42.0,42.0,29.70,SE,130,1.0,-999.0,99,-99.99,,,-99.99,,2013-01-13 16:53:00,
2013-01-13 12:03:00,42.0,42.0,29.70,SE,130,1.0,-999.0,99,-99.99,,,-99.99,,2013-01-13 17:03:00,
2013-01-13 12:12:00,42.0,42.0,29.70,SE,130,1.0,-999.0,99,-99.99,,,-99.99,,2013-01-13 17:12:00,
2013-01-13 12:22:00,43.0,43.0,29.69,SSW,204,1.0,-999.0,99,-99.99,,,-99.99,,2013-01-13 17:22:00,
2013-01-13 12:33:00,43.0,43.0,29.69,SSW,204,1.0,-999.0,99,-99.99,,,-99.99,,2013-01-13 17:33:00,
2013-01-13 12:43:00,43.0,43.0,29.69,SSW,204,1.0,-999.0,99,-99.99,,,-99.99,,2013-01-13 17:43:00,
2013-01-13 12:53:00,43.0,43.0,29.67,South,189,2.0,-999.0,99,-99.99,,,-99.99,,2013-01-13 17:53:00,
2013-01-13 13:03:00,42.0,42.0,29.65,South,180,1.0,-999.0,99,-99.99,,,-99.99,,2013-01-13 18:03:00,
2013-01-13 13:12:00,42.0,42.0,29.65,South,180,1.0,-999.0,99,-99.99,,,-99.99,,2013-01-13 18:12:00,
2013-01-13 13:23:00,42.0,42.0,29.65,SE,133,1.0,-999.0,99,-99.99,,,-99.99,,2013-01-13 18:23:00,
2013-01-13 13:33:00,43.0,43.0,29.64,SSE,161,1.0,-999.0,99,-99.99,,,-99.99,,2013-01-13 18:33:00,
2013-01-13 13:43:00,43.0,43.0,29.64,SSE,161,1.0,-999.0,99,-99.99,,,-99.99,,2013-01-13 18:43:00,
2013-01-13 13:53:00,43.0,43.0,29.65,SSW,196,1.0,-999.0,99,-99.99,,,-99.99,,2013-01-13 18:53:00,
2013-01-13 14:03:00,43.0,43.0,29.64,SSW,200,1.0,-999.0,99,-99.99,,,-99.99,,2013-01-13 19:03:00,
2013-01-13 14:12:00,43.0,43.0,29.64,SSW,200,1.0,-999.0,99,-99.99,,,-99.99,,2013-01-13 19:12:00,
2013-01-13 14:23:00,43.0,43.0,29.64,SW,215,0.0,-999.0,99,-99.99,,,-99.99,,2013-01-13 19:23:00,
2013-01-13 14:33:00,43.0,43.0,29.62,South,176,0.0,-999.0,99,-99.99,,,-99.99,,2013-01-13 19:33:00,
2013-01-13 14:43:00,43.0,43.0,29.62,South,176,0.0,-999.0,99,-99.99,,,-99.99,,2013-01-13 19:43:00,
2013-01-13 14:53:00,43.0,43.0,29.63,SSE,150,1.0,-999.0,99,-99.99,,,-99.99,,2013-01-13 19:53:00,
2013-01-13 15:03:00,43.0,43.0,29.64,South,173,1.0,-999.0,99,-99.99,,,-99.99,,2013-01-13 20:03:00,
2013-01-13 15:12:00,43.0,43.0,29.64,South,173,1.0,-999.0,99,-99.99,,,-99.99,,2013-01-13 20:12:00,
2013-01-13 15:22:00,43.0,43.0,29.63,SSW,211,0.0,-999.0,99,-99.99,,,-99.99,,2013-01-13 20:22:00,
2013-01-13 15:33:00,43.0,43.0,29.62,ESE,121,1.0,-999.0,99,-99.99,,,-99.99,,2013-01-13 20:33:00,
2013-01-13 15:43:00,43.0,43.0,29.62,ESE,121,1.0,-999.0,99,-99.99,,,-99.99,,2013-01-13 20:43:00,
2013-01-13 15:53:00,44.0,44.0,29.62,SSW,209,2.0,-999.0,99,-99.99,,,-99.99,,2013-01-13 20:53:00,
2013-01-13 16:03:00,44.0,44.0,29.62,SSW,210,1.0,-999.0,99,-99.99,,,-99.99,,2013-01-13 21:03:00,
2013-01-13 16:12:00,44.0,44.0,29.62,SSW,210,1.0,-999.0,99,-99.99,,,-99.99,,2013-01-13 21:12:00,
2013-01-13 16:23:00,44.0,44.0,29.62,South,190,1.0,-999.0,99,-99.99,,,-99.99,,2013-01-13 21:23:00,
2013-01-13 16:33:00,44.0,44.0,29.62,South,188,1.0,-999.0,99,-99.99,,,-99.99,,2013-01-13 21:33:00,
2013-01-13 16:43:00,44.0,44.0,29.62,South,188,1.0,-999.0,99,-99.99,,,-99.99,,2013-01-13 21:43:00,
2013-01-13 16:53:00,44.0,44.0,29.61,SSW,200,2.0,-999.0,99,-99.99,,,-99.99,,2013-01-13 21:53:00,
2013-01-13 17:02:00,44.0,44.0,29.61,South,174,2.0,-999.0,99,-99.99,,,-99.99,,2013-01-13 22:02:00,
2013-01-13 17:12:00,44.0,44.0,29.61,South,174,2.0,-999.0,99,-99.99,,,-99.99,,2013-01-13 22:12:00,
2013-01-13 17:22:00,44.0,44.0,29.62,SW,231,1.0,-999.0,99,-99.99,,,-99.99,,2013-01-13 22:22:00,
2013-01-13 17:33:00,44.0,44.0,29.61,SSW,212,1.0,-999.0,99,-99.99,,,-99.99,,2013-01-13 22:33:00,
2013-01-13 17:43:00,44.0,44.0,29.61,SSW,212,1.0,-999.0,99,-99.99,,,-99.99,,2013-01-13 22:43:00,
2013-01-13 17:53:00,44.0,44.0,29.61,SSE,165,2.0,-999.0,99,-99.99,,,-99.99,,2013-01-13 22:53:00,
2013-01-13 18:02:00,44.0,44.0,29.62,SSE,160,2.0,-999.0,99,-99.99,,,-99.99,,2013-01-13 23:02:00,
2013-01-13 18:12:00,44.0,44.0,29.62,SSE,160,2.0,-999.0,99,-99.99,,,-99.99,,2013-01-13 23:12:00,
2013-01-13 18:23:00,44.0,44.0,29.62,SSE,165,2.0,-999.0,99,-99.99,,,-99.99,,2013-01-13 23:23:00,
2013-01-13 18:33:00,44.0,44.0,29.61,SSE,161,1.0,-999.0,99,-99.99,,,-99.99,,2013-01-13 23:33:00,
2013-01-13 18:43:00,44.0,44.0,29.61,SSE,161,1.0,-999.0,99,-99.99,,,-99.99,,2013-01-13 23:43:00,
2013-01-13 18:53:00,44.0,44.0,29.62,South,176,1.0,-999.0,99,-99.99,,,-99.99,,2013-01-13 23:53:00,
2013-01-13 19:03:00,44.0,44.0,29.63,SSW,208,1.0,-999.0,99,-99.99,,,-99.99,,2013-01-14 00:03:00,
2013-01-13 19:12:00,44.0,44.0,29.63,SSW,208,1.0,-999.0,99,-99.99,,,-99.99,,2013-01-14 00:12:00,
2013-01-13 19:22:00,44.0,44.0,29.63,SW,226,1.0,-999.0,99,-99.99,,,-99.99,,2013-01-14 00:22:00,
2013-01-13 19:33:00,44.0,44.0,29.63,SW,226,0.0,-999.0,99,-99.99,,,-99.99,,2013-01-14 00:33:00,
2013-01-13 19:43:00,44.0,44.0,29.63,SW,226,0.0,-999.0,99,-99.99,,,-99.99,,2013-01-14 00:43:00,
2013-01-13 19:53:00,44.0,44.0,29.63,SW,226,0.0,-999.0,99,-99.99,,,-99.99,,2013-01-14 00:53:00,
2013-01-13 20:03:00,43.0,42.0,29.62,SW,226,0.0,-999.0,98,-99.99,,,-99.99,,2013-01-14 01:03:00,
2013-01-13 20:12:00,43.0,42.0,29.62,SW,226,0.0,-999.0,98,-99.99,,,-99.99,,2013-01-14 01:12:00,
2013-01-13 20:22:00,42.0,41.0,29.63,SW,226,0.0,-999.0,98,-99.99,,,-99.99,,2013-01-14 01:22:00,
2013-01-13 20:33:00,42.0,42.0,29.62,South,170,1.0,-999.0,99,-99.99,,,-99.99,,2013-01-14 01:33:00,
2013-01-13 20:42:00,42.0,42.0,29.62,South,170,1.0,-999.0,99,-99.99,,,-99.99,,2013-01-14 01:42:00,
2013-01-13 20:53:00,43.0,43.0,29.62,SSE,160,1.0,-999.0,99,-99.99,,,-99.99,,2013-01-14 01:53:00,
2013-01-13 21:03:00,44.0,44.0,29.61,ESE,123,1.0,-999.0,99,-99.99,,,-99.99,,2013-01-14 02:03:00,
2013-01-13 21:12:00,44.0,44.0,29.61,ESE,123,1.0,-999.0,99,-99.99,,,-99.99,,2013-01-14 02:12:00,
2013-01-13 21:22:00,44.0,44.0,29.60,South,187,1.0,-999.0,99,-99.99,,,-99.99,,2013-01-14 02:22:00,
2013-01-13 21:33:00,44.0,44.0,29.60,South,183,2.0,-999.0,99,-99.99,,,-99.99,,2013-01-14 02:33:00,
2013-01-13 21:42:00,44.0,44.0,29.60,South,183,2.0,-999.0,99,-99.99,,,-99.99,,2013-01-14 02:42:00,
2013-01-13 21:53:00,44.0,44.0,29.59,South,175,1.0,-999.0,99,-99.99,,,-99.99,,2013-01-14 02:53:00,
2013-01-13 22:03:00,44.0,44.0,29.59,SSW,211,1.0,-999.0,99,-99.99,,,-99.99,,2013-01-14 03:03:00,
2013-01-13 22:12:00,44.0,44.0,29.59,SSW,211,1.0,-999.0,99,-99.99,,,-99.99,,2013-01-14 03:12:00,
2013-01-13 22:22:00,44.0,44.0,29.60,South,182,1.0,-999.0,99,-99.99,,,-99.99,,2013-01-14 03:22:00,
2013-01-13 22:33:00,44.0,44.0,29.60,South,184,1.0,-999.0,99,-99.99,,,-99.99,,2013-01-14 03:33:00,
2013-01-13 22:42:00,44.0,44.0,29.60,South,184,1.0,-999.0,99,-99.99,,,-99.99,,2013-01-14 03:42:00,
2013-01-13 22:53:00,44.0,44.0,29.59,South,188,1.0,-999.0,99,-99.99,,,-99.99,,2013-01-14 03:53:00,
2013-01-13 23:02:00,44.0,44.0,29.60,SW,214,2.0,-999.0,99,-99.99,,,-99.99,,2013-01-14 04:02:00,
2013-01-13 23:12:00,44.0,44.0,29.60,SW,214,2.0,-999.0,99,-99.99,,,-99.99,,2013-01-14 04:12:00,
2013-01-13 23:22:00,44.0,44.0,29.59,South,176,2.0,-999.0,99,-99.99,,,-99.99,,2013-01-14 04:22:00,
2013-01-13 23:32:00,44.0,44.0,29.59,SW,219,1.0,-999.0,99,-99.99,,,-99.99,,2013-01-14 04:32:00,
2013-01-13 23:42:00,44.0,44.0,29.59,SW,219,1.0,-999.0,99,-99.99,,,-99.99,,2013-01-14 04:42:00,
2013-01-13 23:53:00,44.0,44.0,29.59,SSE,154,1.0,-999.0,99,-99.99,,,-99.99,,2013-01-14 04:53:00,